Time,TemperatureF,DewpointF,PressureIn,WindDirection,WindDirectionDegrees,WindSpeedMPH,WindSpeedGustMPH,Humidity,HourlyPrecipIn,Conditions,Clouds,dailyrainin,SoftwareType,DateUTC
2013-05-28 00:01:00,53.0,53.0,-100.00,North,-999,0.0,0.0,100,-99.99,,,-99.99,,2013-05-28 07:01:00,
2013-05-28 00:20:00,53.0,53.0,-100.00,North,-999,0.0,0.0,100,-99.99,,,-99.99,,2013-05-28 07:20:00,
2013-05-28 00:21:00,53.0,53.0,-100.00,North,-999,0.0,0.0,100,-99.99,,,-99.99,,2013-05-28 07:21:00,
2013-05-28 00:32:00,54.0,54.0,-100.00,North,-999,0.0,0.0,100,-99.99,,,-99.99,,2013-05-28 07:32:00,
2013-05-28 00:50:00,52.0,52.0,-100.00,North,-999,0.0,0.0,100,-99.99,,,-99.99,,2013-05-28 07:50:00,
2013-05-28 01:02:00,53.0,53.0,-100.00,North,-999,0.0,0.0,100,-99.99,,,-99.99,,2013-05-28 08:02:00,
2013-05-28 01:20:00,52.0,52.0,-100.00,North,-999,0.0,0.0,100,-99.99,,,0.00,,2013-05-28 08:20:00,
2013-05-28 01:32:00,52.0,52.0,-100.00,North,-999,0.0,0.0,100,-99.99,,,-99.99,,2013-05-28 08:32:00,
2013-05-28 01:50:00,52.0,52.0,-100.00,North,-999,0.0,0.0,100,-99.99,,,0.00,,2013-05-28 08:50:00,
2013-05-28 02:01:00,52.0,52.0,-100.00,North,-999,0.0,0.0,100,-99.99,,,0.00,,2013-05-28 09:01:00,
2013-05-28 02:20:00,51.0,51.0,-100.00,North,-999,0.0,0.0,100,-99.99,,,0.00,,2013-05-28 09:20:00,
2013-05-28 02:33:00,52.0,52.0,-100.00,North,-999,0.0,0.0,100,-99.99,,,0.00,,2013-05-28 09:33:00,
2013-05-28 02:50:00,51.0,51.0,-100.00,North,-999,0.0,0.0,100,-99.99,,,0.00,,2013-05-28 09:50:00,
2013-05-28 03:03:00,51.0,51.0,-100.00,North,-999,0.0,0.0,100,-99.99,,,0.00,,2013-05-28 10:03:00,
2013-05-28 03:20:00,50.0,50.0,-100.00,North,-999,0.0,0.0,100,-99.99,,,0.00,,2013-05-28 10:20:00,
2013-05-28 03:32:00,52.0,52.0,-100.00,North,-999,0.0,0.0,100,-99.99,,,0.00,,2013-05-28 10:32:00,
2013-05-28 03:50:00,50.0,50.0,-100.00,North,-999,0.0,0.0,100,-99.99,,,0.00,,2013-05-28 10:50:00,
2013-05-28 04:02:00,50.0,50.0,-100.00,North,-999,0.0,0.0,100,-99.99,,,0.00,,2013-05-28 11:02:00,
2013-05-28 04:20:00,50.0,50.0,-100.00,North,-999,0.0,0.0,100,-99.99,,,0.00,,2013-05-28 11:20:00,
2013-05-28 04:32:00,50.0,50.0,-100.00,North,-999,0.0,0.0,100,-99.99,,,0.00,,2013-05-28 11:32:00,
2013-05-28 05:01:00,51.0,51.0,-100.00,North,-999,0.0,0.0,100,-99.99,,,0.00,,2013-05-28 12:01:00,
2013-05-28 05:20:00,49.0,49.0,-100.00,North,-999,0.0,0.0,100,-99.99,,,0.00,,2013-05-28 12:20:00,
2013-05-28 05:31:00,50.0,50.0,-100.00,North,-999,0.0,0.0,100,-99.99,,,0.00,,2013-05-28 12:31:00,
2013-05-28 05:50:00,49.0,49.0,-100.00,North,-999,0.0,0.0,100,-99.99,,,0.00,,2013-05-28 12:50:00,
2013-05-28 05:52:00,50.0,50.0,-100.00,North,-999,0.0,0.0,100,-99.99,,,0.00,,2013-05-28 12:52:00,
2013-05-28 06:01:00,50.0,50.0,-100.00,North,-999,0.0,0.0,100,-99.99,,,0.00,,2013-05-28 13:01:00,
2013-05-28 06:32:00,49.0,49.0,-100.00,North,-999,0.0,0.0,100,-99.99,,,0.00,,2013-05-28 13:32:00,
2013-05-28 06:50:00,49.0,49.0,-100.00,North,-999,0.0,0.0,100,-99.99,,,0.00,,2013-05-28 13:50:00,
2013-05-28 07:01:00,49.0,49.0,-100.00,North,-999,0.0,0.0,100,-99.99,,,0.00,,2013-05-28 14:01:00,
2013-05-28 07:32:00,49.0,49.0,-100.00,North,-999,0.0,0.0,100,-99.99,,,0.00,,2013-05-28 14:32:00,
2013-05-28 07:50:00,52.0,52.0,-100.00,North,-999,0.0,0.0,100,-99.99,,,-99.99,,2013-05-28 14:50:00,
2013-05-28 08:01:00,50.0,50.0,-100.00,North,-999,0.0,0.0,100,-99.99,,,0.00,,2013-05-28 15:01:00,
2013-05-28 08:20:00,52.0,52.0,-100.00,North,-999,0.0,0.0,100,-99.99,,,0.00,,2013-05-28 15:20:00,
2013-05-28 08:32:00,51.0,51.0,-100.00,North,-999,0.0,0.0,100,-99.99,,,-99.99,,2013-05-28 15:32:00,
2013-05-28 08:43:00,52.0,52.0,-100.00,North,-999,0.0,0.0,100,-99.99,,,-99.99,,2013-05-28 15:43:00,
2013-05-28 08:50:00,55.0,55.0,-100.00,North,-999,0.0,0.0,100,-99.99,,,-99.99,,2013-05-28 15:50:00,
2013-05-28 09:03:00,52.0,52.0,-100.00,North,-999,0.0,0.0,100,-99.99,,,0.00,,2013-05-28 16:03:00,
2013-05-28 09:33:00,55.0,55.0,-100.00,North,-999,0.0,0.0,100,-99.99,,,-99.99,,2013-05-28 16:33:00,
2013-05-28 10:02:00,54.0,54.0,-100.00,North,-999,0.0,0.0,100,-99.99,,,-99.99,,2013-05-28 17:02:00,
2013-05-28 10:20:00,57.0,57.0,-100.00,North,-999,0.0,0.0,100,-99.99,,,-99.99,,2013-05-28 17:20:00,
2013-05-28 10:32:00,53.0,53.0,-100.00,North,-999,0.0,0.0,100,-99.99,,,-99.99,,2013-05-28 17:32:00,
2013-05-28 11:01:00,56.0,56.0,-100.00,North,-999,0.0,0.0,100,-99.99,,,-99.99,,2013-05-28 18:01:00,
2013-05-28 11:20:00,58.0,58.0,-100.00,North,-999,0.0,0.0,100,-99.99,,,-99.99,,2013-05-28 18:20:00,
2013-05-28 11:32:00,57.0,57.0,-100.00,North,-999,0.0,0.0,100,-99.99,,,-99.99,,2013-05-28 18:32:00,
2013-05-28 11:50:00,59.0,59.0,-100.00,North,-999,0.0,0.0,100,-99.99,,,-99.99,,2013-05-28 18:50:00,
2013-05-28 12:01:00,58.0,58.0,-100.00,North,-999,0.0,0.0,100,-99.99,,,-99.99,,2013-05-28 19:01:00,
2013-05-28 12:20:00,59.0,59.0,-100.00,North,-999,0.0,0.0,100,-99.99,,,-99.99,,2013-05-28 19:20:00,
2013-05-28 12:32:00,58.0,58.0,-100.00,North,-999,0.0,0.0,100,-99.99,,,-99.99,,2013-05-28 19:32:00,
2013-05-28 12:41:00,59.0,59.0,-100.00,North,-999,0.0,0.0,100,-99.99,,,-99.99,,2013-05-28 19:41:00,
2013-05-28 12:50:00,60.0,60.0,-100.00,North,-999,0.0,0.0,100,-99.99,,,-99.99,,2013-05-28 19:50:00,
2013-05-28 13:01:00,59.0,59.0,-100.00,North,-999,0.0,0.0,100,-99.99,,,-99.99,,2013-05-28 20:01:00,
2013-05-28 13:20:00,60.0,60.0,-100.00,North,-999,0.0,0.0,100,-99.99,,,-99.99,,2013-05-28 20:20:00,
2013-05-28 13:32:00,60.0,60.0,-100.00,North,-999,0.0,0.0,100,-99.99,,,-99.99,,2013-05-28 20:32:00,
2013-05-28 14:01:00,60.0,60.0,-100.00,North,-999,0.0,0.0,100,-99.99,,,-99.99,,2013-05-28 21:01:00,
2013-05-28 14:33:00,62.0,62.0,-100.00,North,-999,0.0,0.0,100,-99.99,,,-99.99,,2013-05-28 21:33:00,
2013-05-28 15:02:00,62.0,62.0,-100.00,North,-999,0.0,0.0,100,-99.99,,,-99.99,,2013-05-28 22:02:00,
2013-05-28 15:20:00,62.0,62.0,-100.00,North,-999,0.0,0.0,100,-99.99,,,-99.99,,2013-05-28 22:20:00,
2013-05-28 15:32:00,61.0,61.0,-100.00,North,-999,0.0,0.0,100,-99.99,,,-99.99,,2013-05-28 22:32:00,
2013-05-28 15:50:00,62.0,62.0,-100.00,North,-999,0.0,0.0,100,-99.99,,,-99.99,,2013-05-28 22:50:00,
2013-05-28 16:02:00,62.0,62.0,-100.00,North,-999,0.0,0.0,100,-99.99,,,-99.99,,2013-05-28 23:02:00,
2013-05-28 16:20:00,63.0,63.0,-100.00,North,-999,0.0,0.0,100,-99.99,,,-99.99,,2013-05-28 23:20:00,
2013-05-28 16:32:00,61.0,61.0,-100.00,North,-999,0.0,0.0,100,-99.99,,,-99.99,,2013-05-28 23:32:00,
2013-05-28 16:50:00,63.0,63.0,-100.00,North,-999,0.0,0.0,100,-99.99,,,-99.99,,2013-05-28 23:50:00,
2013-05-28 17:02:00,63.0,63.0,-100.00,North,-999,0.0,0.0,100,-99.99,,,-99.99,,2013-05-29 00:02:00,
2013-05-28 17:20:00,63.0,63.0,-100.00,North,-999,0.0,0.0,100,-99.99,,,-99.99,,2013-05-29 00:20:00,
2013-05-28 17:32:00,64.0,64.0,-100.00,North,-999,0.0,0.0,100,-99.99,,,-99.99,,2013-05-29 00:32:00,
2013-05-28 18:01:00,64.0,64.0,-100.00,North,-999,0.0,0.0,100,-99.99,,,-99.99,,2013-05-29 01:01:00,
2013-05-28 18:32:00,63.0,63.0,-100.00,North,-999,0.0,0.0,100,-99.99,,,-99.99,,2013-05-29 01:32:00,
2013-05-28 18:41:00,63.0,63.0,-100.00,North,-999,0.0,0.0,100,-99.99,,,-99.99,,2013-05-29 01:41:00,
2013-05-28 18:52:00,62.0,62.0,-100.00,North,-999,0.0,0.0,100,-99.99,,,-99.99,,2013-05-29 01:52:00,
2013-05-28 19:02:00,62.0,62.0,-100.00,North,-999,0.0,0.0,100,-99.99,,,-99.99,,2013-05-29 02:02:00,
2013-05-28 19:20:00,60.0,60.0,-100.00,North,-999,0.0,0.0,100,-99.99,,,-99.99,,2013-05-29 02:20:00,
2013-05-28 19:32:00,62.0,62.0,-100.00,North,-999,0.0,0.0,100,-99.99,,,-99.99,,2013-05-29 02:32:00,
2013-05-28 19:50:00,59.0,59.0,-100.00,North,-999,0.0,0.0,100,-99.99,,,-99.99,,2013-05-29 02:50:00,
2013-05-28 20:02:00,60.0,60.0,-100.00,North,-999,0.0,0.0,100,-99.99,,,-99.99,,2013-05-29 03:02:00,
2013-05-28 20:33:00,59.0,59.0,-100.00,North,-999,0.0,0.0,100,-99.99,,,-99.99,,2013-05-29 03:33:00,
2013-05-28 21:02:00,58.0,58.0,-100.00,North,-999,0.0,0.0,100,-99.99,,,-99.99,,2013-05-29 04:02:00,
2013-05-28 21:20:00,54.0,54.0,-100.00,North,-999,0.0,0.0,100,-99.99,,,-99.99,,2013-05-29 04:20:00,
2013-05-28 21:23:00,57.0,57.0,-100.00,North,-999,-999.0,-999.0,100,-99.99,,,-99.99,,2013-05-29 04:23:00,
2013-05-28 21:33:00,56.0,56.0,-100.00,North,-999,0.0,0.0,100,-99.99,,,-99.99,,2013-05-29 04:33:00,
2013-05-28 21:50:00,53.0,53.0,-100.00,North,-999,0.0,0.0,100,-99.99,,,-99.99,,2013-05-29 04:50:00,
2013-05-28 21:52:00,54.0,54.0,-100.00,North,-999,0.0,0.0,100,-99.99,,,-99.99,,2013-05-29 04:52:00,
2013-05-28 22:02:00,54.0,54.0,-100.00,North,-999,0.0,0.0,100,-99.99,,,-99.99,,2013-05-29 05:02:00,
2013-05-28 22:20:00,52.0,52.0,-100.00,North,-999,0.0,0.0,100,-99.99,,,-99.99,,2013-05-29 05:20:00,
2013-05-28 22:32:00,53.0,53.0,-100.00,North,-999,0.0,0.0,100,-99.99,,,-99.99,,2013-05-29 05:32:00,
2013-05-28 22:50:00,51.0,51.0,-100.00,North,-999,0.0,0.0,100,-99.99,,,-99.99,,2013-05-29 05:50:00,
2013-05-28 23:01:00,52.0,52.0,-100.00,North,-999,0.0,0.0,100,-99.99,,,-99.99,,2013-05-29 06:01:00,
2013-05-28 23:31:00,51.0,51.0,-100.00,North,-999,0.0,0.0,100,-99.99,,,-99.99,,2013-05-29 06:31:00,
2013-05-28 23:50:00,52.0,52.0,-100.00,North,-999,0.0,0.0,100,-99.99,,,-99.99,,2013-05-29 06:50:00,